Weather History for Mountain Home, ID

Change the Weather History Date:

Monday, February 25, 2013

  Actual Average Record
Temperature  
Mean Temperature 30 °F 38 °F  
Max Temperature 37 °F 48 °F 70 °F (1995)
Min Temperature 23 °F 26 °F 5 °F (1933)
Degree Days  
Heating Degree Days 35 28  
Month to date heating degree days 751 761  
Cooling Degree Days 0 0  
Month to date cooling degree days 0 0  
Moisture  
Dew Point 26 °F    
Average Humidity 83    
Maximum Humidity 100    
Minimum Humidity 55    
Precipitation  
Precipitation 0.01 in 0.04 in 0.31 in (1915)
Month to date precipitation 0.06 0.76  
Sea Level Pressure  
Sea Level Pressure 30.13 in    
Wind  
Wind Speed 11 mph (East)    
Max Wind Speed 22 mph    
Max Gust Speed 29 mph    
Visibility 8 miles    
Events Snow    
T = Trace of Precipitation, MM = Missing Value Source: NWS Daily Summary

Daily Weather History Graph

Daily Weather History Graph

Search for Another Location

Airport:

Trip Planner

Search our weather history database for the weather conditions in past years. The results will help you decide how hot, cold, wet, or windy it might be!

Date:

Astronomy

Feb. 25, 2013 Rise Set
Actual Time 7:25 AM MST 6:28 PM MST
Civil Twilight 6:56 AM MST 6:56 PM MST
Nautical Twilight 6:23 AM MST 7:29 PM MST
Astronomical Twilight 5:51 AM MST 8:02 PM MST
Moon 6:47 PM MST (2/25) 6:56 AM MST (2/25)
Length of Visible Light 12h 00m
Length of Day
11h 02m
Full, 100% of the Moon is Illuminated
Feb 25
Full
Feb 25
Full
Mar 4
Last Quarter
Mar 11
New
Mar 19
First Quarter

Hourly Weather History & Observations

Time (MST) Temp. Windchill Dew Point Humidity Pressure Visibility Wind Dir Wind Speed Gust Speed Precip Events Conditions
12:58 AM 23.5 °F 15.4 °F 17.8 °F 79% 30.28 in 10.0 mi East 6.9 mph - N/A   Clear
1:58 AM 23.0 °F 13.1 °F 18.5 °F 83% 30.27 in 10.0 mi East 9.2 mph - N/A   Clear
2:58 AM 23.9 °F 12.9 °F 19.4 °F 83% 30.24 in 10.0 mi East 11.5 mph - N/A   Clear
3:58 AM 25.2 °F 13.9 °F 19.9 °F 81% 30.21 in 10.0 mi ESE 12.7 mph - N/A   Clear
4:58 AM 25.2 °F 12.9 °F 19.6 °F 79% 30.19 in 10.0 mi ESE 15.0 mph - N/A   Clear
5:58 AM 24.4 °F 11.9 °F 19.4 °F 81% 30.19 in 10.0 mi ESE 15.0 mph - N/A   Clear
6:58 AM 23.9 °F 10.8 °F 18.5 °F 80% 30.19 in 10.0 mi ESE 16.1 mph - N/A   Scattered Clouds
7:55 AM 26.6 °F 13.1 °F 19.4 °F 74% 30.09 in 10.0 mi ESE 19.6 mph - N/A   Mostly Cloudy
8:33 AM 26.6 °F 13.1 °F 19.4 °F 74% 30.11 in 10.0 mi ESE 19.6 mph 26.5 mph N/A   Overcast
8:55 AM 26.6 °F 12.7 °F 19.4 °F 74% 30.09 in 10.0 mi ESE 20.7 mph 26.5 mph N/A   Mostly Cloudy
8:58 AM 27.3 °F 14.4 °F 18.5 °F 69% 30.17 in 10.0 mi East 18.4 mph - N/A   Overcast
9:13 AM 28.4 °F 15.4 °F 17.6 °F 64% 30.09 in 10.0 mi East 19.6 mph - N/A   Overcast
9:53 AM 28.4 °F 15.1 °F 17.6 °F 64% 30.08 in 10.0 mi East 20.7 mph - N/A   Overcast
9:58 AM 29.1 °F 16.0 °F 18.3 °F 64% 30.15 in 10.0 mi East 20.7 mph - N/A   Overcast
10:03 AM 30.2 °F 17.1 °F 17.6 °F 60% 30.08 in 10.0 mi East 21.9 mph 26.5 mph N/A   Overcast
10:08 AM 30.2 °F 18.5 °F 17.6 °F 60% 30.08 in 10.0 mi East 17.3 mph 28.8 mph N/A   Overcast
10:33 AM 32.0 °F 21.2 °F 17.6 °F 55% 30.08 in 10.0 mi East 16.1 mph 24.2 mph N/A   Overcast
10:38 AM 32.0 °F 20.5 °F 17.6 °F 55% 30.08 in 10.0 mi East 18.4 mph - N/A   Overcast
10:53 AM 32.0 °F 20.5 °F 19.4 °F 60% 30.08 in 10.0 mi ESE 18.4 mph - N/A   Overcast
10:58 AM 30.7 °F 20.0 °F 18.5 °F 60% 30.16 in 10.0 mi East 15.0 mph - N/A   Overcast
11:08 AM 30.7 °F 20.0 °F 18.5 °F 60% 30.08 in 4.0 mi East 15.0 mph 24.2 mph N/A Snow Light Snow
11:27 AM 30.7 °F 19.6 °F 18.5 °F 60% 30.08 in 10.0 mi ESE 16.1 mph 23.0 mph N/A   Overcast
11:33 AM 32.0 °F 20.8 °F 23.0 °F 69% 30.07 in 10.0 mi East 17.3 mph - N/A   Overcast
11:58 AM 31.3 °F 23.9 °F 22.3 °F 69% 30.16 in 10.0 mi East 8.1 mph - 0.00 in   Overcast
12:08 PM 32.0 °F 26.4 °F 23.0 °F 69% 30.10 in 8.0 mi East 5.8 mph - N/A   Overcast
12:09 PM 32.0 °F 26.4 °F 23.0 °F 69% 30.10 in 2.0 mi East 5.8 mph - N/A Snow Light Snow
12:13 PM 32.0 °F 28.7 °F 23.0 °F 69% 30.10 in 3.0 mi East 3.5 mph - N/A   Haze
12:15 PM 32.0 °F 28.7 °F 23.0 °F 69% 30.10 in 2.0 mi East 3.5 mph - N/A Snow Light Snow
12:18 PM 32.0 °F 28.7 °F 23.0 °F 69% 30.10 in 1.5 mi ESE 3.5 mph - N/A Snow Light Snow
1:05 PM - - - N/A% 30.08 in 3.0 mi East 3.5 mph - N/A   Overcast
1:16 PM 30.2 °F 24.3 °F 26.6 °F 86% 30.08 in 6.0 mi East 5.8 mph - N/A Snow Light Snow
1:20 PM 30.2 °F 23.4 °F 28.4 °F 93% 30.09 in 9.0 mi East 6.9 mph - N/A Snow Light Snow
1:28 PM 30.2 °F 23.4 °F 28.4 °F 93% 30.08 in 7.0 mi East 6.9 mph - N/A Snow Light Snow
1:58 PM 30.7 °F 24.9 °F 28.4 °F 91% 30.17 in 8.0 mi East 5.8 mph - 0.00 in   Mostly Cloudy
2:28 PM 32.0 °F 27.5 °F 30.2 °F 93% 30.08 in 10.0 mi SE 4.6 mph - N/A   Overcast
2:36 PM 32.0 °F 27.5 °F 28.4 °F 87% 30.08 in 10.0 mi ESE 4.6 mph - N/A   Mostly Cloudy
2:55 PM 32.0 °F - 28.4 °F 87% 30.08 in 10.0 mi Variable 1.2 mph - N/A   Overcast
3:07 PM 33.8 °F - 28.4 °F 81% 30.08 in 10.0 mi NE 2.3 mph - N/A   Mostly Cloudy
3:25 PM 35.6 °F - 30.2 °F 81% 30.08 in 10.0 mi Variable 2.3 mph - N/A   Scattered Clouds
3:58 PM 35.8 °F 33.0 °F 28.9 °F 76% 30.15 in 10.0 mi WNW 3.5 mph - 0.01 in   Scattered Clouds
4:58 PM 36.9 °F 30.7 °F 28.8 °F 72% 30.16 in 10.0 mi WSW 8.1 mph - N/A   Mostly Cloudy
5:23 PM 35.6 °F 29.9 °F 28.4 °F 75% 30.08 in 10.0 mi WSW 6.9 mph - N/A   Mostly Cloudy
5:58 PM 34.0 °F 27.2 °F 28.8 °F 81% 30.15 in 10.0 mi WSW 8.1 mph - N/A   Mostly Cloudy
6:58 PM 30.9 °F 23.5 °F 27.9 °F 88% 30.17 in 10.0 mi WSW 8.1 mph - N/A   Mostly Cloudy
7:58 PM 29.7 °F 24.7 °F 27.5 °F 92% 30.19 in 10.0 mi WSW 4.6 mph - N/A   Mostly Cloudy
8:03 PM 30.2 °F 24.3 °F 28.4 °F 93% 30.11 in 10.0 mi WSW 5.8 mph - N/A   Mostly Cloudy
8:23 PM 32.0 °F 27.5 °F 28.4 °F 87% 30.12 in 10.0 mi West 4.6 mph - N/A   Overcast
8:43 PM 32.0 °F - 30.2 °F 93% 30.11 in 10.0 mi Calm Calm - N/A   Scattered Clouds
8:58 PM 30.7 °F - 29.1 °F 94% 30.19 in 10.0 mi West 1.2 mph - N/A   Partly Cloudy
9:33 PM 28.4 °F 19.7 °F 26.6 °F 93% 30.12 in 10.0 mi West 9.2 mph - N/A   Light Freezing Rain
9:43 PM 30.2 °F 21.9 °F 30.2 °F 100% 30.13 in 10.0 mi West 9.2 mph - N/A   Mostly Cloudy
9:53 PM 32.0 °F 23.6 °F 30.2 °F 93% 30.13 in 10.0 mi West 10.4 mph - N/A   Overcast
9:58 PM 32.0 °F 22.5 °F 30.2 °F 93% 30.22 in 7.0 mi WNW 12.7 mph - 0.00 in   Overcast
10:03 PM 32.0 °F 21.6 °F 32.0 °F 100% 30.14 in 0.8 mi West 15.0 mph - N/A Snow Light Snow
10:08 PM 32.0 °F 21.6 °F 32.0 °F 100% 30.14 in 0.8 mi WNW 15.0 mph - N/A Snow Light Snow
10:13 PM 32.0 °F 20.8 °F 32.0 °F 100% 30.14 in 1.5 mi WNW 17.3 mph - N/A Snow Light Snow
10:18 PM 32.0 °F 20.8 °F 32.0 °F 100% 30.13 in 4.0 mi WNW 17.3 mph - N/A Snow Light Snow
10:23 PM 32.0 °F 21.6 °F 32.0 °F 100% 30.14 in 4.0 mi NW 15.0 mph - N/A Snow Light Snow
10:25 PM 32.0 °F 22.1 °F 32.0 °F 100% 30.14 in 5.0 mi NNW 13.8 mph - N/A Snow Light Snow
10:30 PM 32.0 °F 23.0 °F 32.0 °F 100% 30.14 in 7.0 mi NNW 11.5 mph - N/A Snow Light Snow
10:35 PM 32.0 °F 24.8 °F 32.0 °F 100% 30.14 in 8.0 mi NNE 8.1 mph - N/A Snow Light Snow
10:39 PM 32.0 °F 25.6 °F 32.0 °F 100% 30.13 in 10.0 mi NNE 6.9 mph - N/A Snow Light Snow
10:40 PM 32.0 °F 26.4 °F 32.0 °F 100% 30.13 in 10.0 mi NNE 5.8 mph - N/A Snow Light Snow
10:58 PM 30.9 °F - 30.0 °F 96% 30.21 in 10.0 mi Calm Calm - 0.00 in Snow Light Snow
11:03 PM 32.0 °F 28.7 °F 30.2 °F 93% 30.14 in 10.0 mi WNW 3.5 mph - N/A Snow Light Snow
11:04 PM 32.0 °F 28.7 °F 30.2 °F 93% 30.14 in 10.0 mi WNW 3.5 mph - N/A Snow Light Snow
11:11 PM 30.2 °F 24.3 °F 28.4 °F 93% 30.14 in 8.0 mi NW 5.8 mph - N/A Snow Light Snow
11:30 PM 30.2 °F 22.6 °F 28.4 °F 93% 30.15 in 10.0 mi West 8.1 mph - N/A Snow Light Snow
11:37 PM 30.2 °F 22.6 °F 28.4 °F 93% 30.15 in 10.0 mi West 8.1 mph - N/A Snow Light Snow
11:42 PM 28.4 °F 19.7 °F 28.4 °F 100% 30.15 in 10.0 mi West 9.2 mph - N/A Snow Light Snow
11:47 PM 28.4 °F 18.5 °F 28.4 °F 100% 30.15 in 10.0 mi West 11.5 mph - N/A Snow Light Snow
11:52 PM 28.4 °F 18.0 °F 28.4 °F 100% 30.15 in 10.0 mi WNW 12.7 mph - N/A   Mostly Cloudy
11:58 PM 29.1 °F 19.4 °F 28.0 °F 96% 30.23 in 10.0 mi West 11.5 mph - 0.00 in   Mostly Cloudy